Regional Weather Roundup
Issued by NWS

Home | Current Version | Previous Version | Text Only | Print | Product List | Glossary Off
Versions: 1 2 3 4 5 6 7 8 9 10 11 12 13 14 15 16 17 18 19 20 21 22 23 24 25 26 27 28 29 30 31 32 33 34 35 36 37 38 39 40 41 42 43 44 45 46 47 48 49 50

000
ASUS45 KBOU 290610
RWRCO

WEATHER ROUNDUP FOR COLORADO
NATIONAL WEATHER SERVICE PUEBLO CO
1200 AM MDT WED JUL 29 2015

NOTE: "FAIR" INDICATES FEW OR NO CLOUDS BELOW 12000 FEET WITH NO
SIGNIFICANT WEATHER AND/OR OBSTRUCTIONS TO VISIBILITY.

COZ001>005-013-030-031-290700-
...NORTHWEST COLORADO...

CITY           SKY/WX    TMP DP  RH WIND       PRES   REMARKS
CRAIG          CLEAR     52  32  46 CALM      30.31R
HAYDEN         CLEAR     52  28  40 CALM      30.32S
MEEKER         CLEAR     54  35  48 SE5       30.32R
MOUNT WERNER   NOT AVBL
STEAMBOAT SPGS FAIR      52  35  52 CALM      30.34S
WALDEN         FAIR      50  21  32 W5        30.43S
$$

COZ006>008-011-290700-
...WEST CENTRAL VALLEYS...

CITY           SKY/WX    TMP DP  RH WIND       PRES   REMARKS
GRAND JUNCTION CLEAR     74  31  20 W5        30.15R
MONTROSE       CLEAR     65  39  38 SE10      30.24R
EAGLE          CLEAR     61  34  36 E5        30.33R
RIFLE          CLEAR     61  34  36 NE6       30.23R
DELTA          NOT AVBL
NUCLA          FAIR      64  32  29 E13       30.27S
$$

COZ017>023-064>068-290700-
...SOUTHWEST COLORADO...

CITY           SKY/WX    TMP DP  RH WIND       PRES   REMARKS
DURANGO        PTCLDY    68  33  27 NW5       30.25S
CORTEZ         CLEAR     59  34  39 NE8       30.22R
PAGOSA SPRINGS MOCLDY    67  35  29 NE5       30.34S
TELLURIDE      PTCLDY    56  33  42 SE6       30.49S
WOLF CREEK PAS NOT AVBL
$$

COZ009-010-012-014-032>034-037-058>063-290700-
...CENTRAL COLORADO...

CITY           SKY/WX    TMP DP  RH WIND       PRES   REMARKS
ASPEN          CLEAR     52  37  56 SW8       30.38S
BUENA VISTA    FAIR      63  35  35 CALM      30.43R
COPPER MTN     CLEAR     54  34  47 S12       30.69S
BERTHOUD PASS  FAIR      37  30  75 SE22      30.74S
COTTONWOOD PAS PTCLDY    57  34  41 CALM      30.56S
GUNNISON       PTCLDY    54  36  50 CALM      30.40S
KREMMLING      CLEAR     52  34  50 CALM      30.40S
LEADVILLE      PTCLDY    51  34  52 S6        30.53S
MONARCH PASS   CLOUDY    45  34  65 E21       30.78R
SALIDA         FAIR      67  37  33 E7        30.46R
NIWOT RIDGE    NOT AVBL
SUNLIGHT       CLEAR     54  28  37 CALM      30.62S
WILKERSON PASS CLEAR     46  34  61 S10G17    30.68S
$$

COZ069>075-290700-
...SAN LUIS VALLEY/SANGRE DE CRISTO MOUNTAINS...

CITY           SKY/WX    TMP DP  RH WIND       PRES   REMARKS
ALAMOSA        MOCLDY    64  48  56 SE15      30.34R
LA VETA PASS   MOCLDY    54  43  66 MISG      30.56S
SAGUACHE       MOCLDY    63  37  39 CALM      30.39R
$$

COZ035-036-038>040-290700-
...NORTHERN COLORADO FRONT RANGE...

CITY           SKY/WX    TMP DP  RH WIND       PRES   REMARKS
DENVER INTL AP PTCLDY    61  43  51 S9        30.29R
DMNS CITY PARK NOT AVBL
AURORA         NOT AVBL
FRONT RANGE AP NOT AVBL
ERIE MUNI ARPT FAIR      64  40  40 CALM      30.28R
BOULDER MUN AP FAIR      64  43  45 N5        30.28S
CENTENNIAL     PTCLDY    64  45  49 S6        30.31S
BROOMFIELD     PTCLDY    70  39  32 E3        30.31S
LOVELAND       PTCLDY    68  37  32 SE7       30.29S
LONGMONT       FAIR      68  42  39 N3        30.29S
$$

COZ041-046-047-076>085-087-088-290700-
...PIKES PEAK/PALMER DIVIDE AND SOUTHERN FOOTHILLS...

CITY           SKY/WX    TMP DP  RH WIND       PRES   REMARKS
COLO. SPRINGS  PTCLDY    65  42  43 CALM      30.35S
A. F. ACADEMY  NOT AVBL
ELLICOTT       FAIR     N/A N/A N/A E10       30.31S
FALCON         FAIR      58  40  50 CALM      30.39S
FORT CARSON    NOT AVBL
LIMON          PTCLDY    57  47  69 CALM      30.30R
MONUMENT HILL  PTCLDY    54  43  66 S5        30.39S
TRINIDAD       MOCLDY    69  49  48 CALM      30.26R
$$

COZ042>045-048>051-090-091-290700-
...NORTHEAST COLORADO...

CITY           SKY/WX    TMP DP  RH WIND       PRES   REMARKS
GREELEY ARPT   PTCLDY    64  43  45 CALM      30.27R
AKRON          CLEAR     63  45  51 S8        30.24F
BURLINGTON     MOCLDY    63  47  55 NE7       30.21F
WRAY           FAIR      58  49  73 W5        30.19S
STERLING       NOT AVBL
HOLYOKE        FAIR      59  52  77 CALM      30.20F
FORT MORGAN    FAIR      62  39  42 CALM      30.25R
$$

COZ086-089-092>099-290700-
...SOUTHEAST COLORADO...

CITY           SKY/WX    TMP DP  RH WIND       PRES   REMARKS
PUEBLO         PTCLDY    75  42  30 NE15      30.21S
LA JUNTA       MOCLDY    68  49  50 E7        30.20R
LAMAR          MOCLDY    67  56  67 E6        30.17R
SPRINGFIELD      N/A     67  58  72 S8        30.25R
$$




USA.gov is the U.S. government's official web portal to all federal, state and local government web resources and services.